Tracking 22925 objects as of 6-May-2021
HD Live streaming from Space Station
objects crossing your sky now

THORAD AGENA D DEB

Track THORAD AGENA D DEB now!
10-day predictions


NORAD ID: 6139
Int'l Code: 1970-025MV
Perigee: 868.0 km
Apogee: 975.6 km
Inclination: 99.0 °
Period: 103.3 minutes
Semi major axis: 7292 km
RCS: 0.0148 m2 (small)
Launch date: April 8, 1970
Source: United States (US)
Launch site: AIR FORCE WESTERN TEST RANGE (AFWTR)

Note: This is SATELLITE DEBRIS
aabbcc
Your satellite tracking list
Your tracking list is empty




NASA's NSSDC Master Catalog

Two Line Element Set (TLE):
1 06139U 70025MV  21125.17077588  .00000310  00000-0  26056-3 0  9993
2 06139  99.0425  16.5478 0073803  78.9723 281.9728 13.93994083567989
Source of the keplerian elements: AFSPC